AirNav   ProFlight Series 2 Aviation Headset
 
 948 users online  

0E8 Crownpoint Airport
Crownpoint, New Mexico, USA

GOING TO CROWNPOINT?


FAA INFORMATION EFFECTIVE 18 JUNE 2020

Location

FAA Identifier: 0E8
Lat/Long: 35-43-03.5720N 108-12-05.7460W
35-43.059533N 108-12.095767W
35.7176589,-108.2015961
(estimated)
Elevation: 6696 ft. / 2040.9 m (surveyed)
Variation: 12E (1985)
From city: 3 miles NW of CROWNPOINT, NM
Time zone: UTC -6 (UTC -7 during Standard Time)
Zip code: 87313

Airport Operations

Airport use: Open to the public
Activation date: 08/1980
Control tower: no
ARTCC: ALBUQUERQUE CENTER
FSS: ALBUQUERQUE FLIGHT SERVICE STATION
NOTAMs facility: ABQ (NOTAM-D service available)
Attendance: UNATNDD
Wind indicator: lighted
Segmented circle: yes
Lights: ACTVT MIRL RY 18/36 - 122.9.
Beacon: white-green (lighted land airport)
Operates sunset to sunrise.

Airport Communications

CTAF: 122.9

Nearby radio navigation aids

VOR radial/distance  VOR name  Freq  Var
GUPr052/35.8GALLUP VORTAC115.1014E

Airport Services

Runway Information

Runway 18/36

Dimensions: 5820 x 60 ft. / 1774 x 18 m
Surface: asphalt, in good condition
Weight bearing capacity: 
PCN 3 /F/D/Y/T
Runway edge lights: medium intensity
Runway edge markings: RWY 36 MARKINGS FADED OR MISSING
RUNWAY 18  RUNWAY 36
Latitude: 35-43.525583N35-42.593483N
Longitude: 108-11.956783W108-12.234767W
Elevation: 6689.0 ft.6696.0 ft.
Traffic pattern: leftleft
Runway heading: 182 magnetic, 194 true002 magnetic, 014 true
Markings: basic, in poor conditionbasic, in poor condition
Visual slope indicator: pulsating/steady burning VASI on left (3.00 degrees glide path)
Touchdown point: yes, no lightsyes, no lights
Obstructions: 43 ft. hill, 1500 ft. from runway, 30:1 slope to clear
+8 FT BERM 0-200 FT FROM THLD 81 FT RIGHT.
32 ft. pline, 900 ft. from runway, 21:1 slope to clear

Airport Ownership and Management from official FAA records

Ownership: Publicly-owned
Owner: NAVAJO DOT
P.O. BOX 4620
WINDOW ROCK, AZ 86515
Phone (928) 371-8300
Manager: PRISCILLA LEE
PO BOX 4620
WINDOW ROCK, AZ 86515
Phone (505) 371-8342
PROGRAM SUPERVISOR

Airport Operational Statistics

Aircraft operations: avg 42/month *
60% air taxi
40% transient general aviation
* for 12-month period ending 10 April 2018

Instrument Procedures

There are no published instrument procedures at 0E8.

Some nearby airports with instrument procedures:

KGUP - Gallup Municipal Airport (31 nm SW)
KGNT - Grants-Milan Municipal Airport (36 nm SE)
KRQE - Window Rock Airport (42 nm W)
KFMN - Four Corners Regional Airport (61 nm N)
KAEG - Double Eagle II Airport (77 nm SE)
 
Loc | Ops | Rwys | IFR | FBO | Links
Com | Nav | Svcs | Stats | Notes

AirBoss

 
Area around 0E8 (Crownpoint Airport)
 
Road maps at: MapQuest Bing Google
 
Aerial photo
WARNING: Photo may not be current or correct
Aerial photo of 0E8 (Crownpoint Airport)
Photo by Richard Clayton
Photo taken 16-Aug-2005

Do you have a better or more recent aerial photo of Crownpoint Airport that you would like to share? If so, please send us your photo.

 
Sectional chart

 
Airport distance calculator
Flying to Crownpoint Airport? Find the distance to fly.

From to 0E8

Sunrise and sunset
Times for 10-Jul-2020
 Local
(UTC-6)
 Zulu
(UTC)
Morning civil twilight05:3711:37
Sunrise06:0712:07
Sunset20:3002:30
Evening civil twilight20:5902:59

Current date and time
Zulu (UTC)  10-Jul-2020 23:58:58
Local (UTC-6)  10-Jul-2020 17:58:58
 
METAR
KGUP 
32nm W 
102353Z AUTO 29010G18KT 10SM CLR 36/00 A3029 RMK AO2 SLP064 T03560000 10367 20317 56012
KGNT 
36nm SE 
102355Z AUTO 28004KT 10SM CLR 34/M01 A3030 RMK AO2 T03371008 10361 20322
KRQE 
42nm W 
102353Z AUTO 29010G18KT 10SM FEW120 34/01 A3032 RMK AO2 SLP114 T03440011 10356 20317 56010
TAF
KGUP 
32nm W 
101720Z 1018/1118 28010G18KT P6SM FEW130 SCT250 FM110100 24007KT P6SM SCT130 FM110500 VRB06KT P6SM BKN150 FM111600 28008KT P6SM SCT150
NOTAMs
Click for the latest NOTAMs
NOTAMs are issued by the DoD/FAA and will open in a separate window not controlled by AirNav.

 

 
 

Would you like to see your business listed on this page?

 If your business provides an interesting product or service to pilots, flight crews, aircraft, or users of the Crownpoint Airport, you should consider listing it here.  To start the listing process, click on the button below
 
Add a business
 

Other Pages about Crownpoint Airport

www.acrnet.com/...
 
Update a link
 
Copyright © AirNav, LLC. All rights reserved. Privacy Policy  Contact